San Jose, Costa Rica

2:38 PM CST on March 24, 2017 (GMT -0600)
Juan Santamaria International Airport

Weather History for MROC - November, 2011

Change the Weather History Date:

Thursday, November 10, 2011

  Actual Average Record
Temperature  
Mean Temperature 71 °F -  
Max Temperature 77 °F 78 °F 86 °F (2016)
Min Temperature 65 °F 64 °F 62 °F (2000)
Cooling Degree Days 6    
Growing Degree Days 21 (Base 50)    
Moisture  
Dew Point 61 °F    
Average Humidity 73    
Maximum Humidity 94    
Minimum Humidity 53    
Precipitation  
Precipitation 0.20 in 0.13 in - ()
Sea Level Pressure  
Sea Level Pressure 29.95 in    
Wind  
Wind Speed 6 mph ()    
Max Wind Speed 14 mph    
Max Gust Speed 25 mph    
Visibility 7.0 miles    
Events Rain    
Averages and records for this station are not official NWS values.
T = Trace of Precipitation, MM = Missing Value Source: Averaged Metar Reports

Daily Weather History Graph

Daily Weather History Graph

Search for Another Location

Airport or City:

Trip Planner

Search our weather history database for the weather conditions in past years. The results will help you decide how hot, cold, wet, or windy it might be!

Date:

Astronomy

Nov. 10, 2011 Rise Set
Actual Time 5:29 AM CST 5:11 PM CST
Civil Twilight 5:07 AM CST 5:33 PM CST
Nautical Twilight 4:42 AM CST 5:59 PM CST
Astronomical Twilight 4:17 AM CST 6:24 PM CST
Moon 5:09 PM CST (11/10) 5:13 AM CST (11/10)
Length of Visible Light 12h 26m
Length of Day
11h 42m
Full, 100% of the Moon is Illuminated
Nov 10
Full
Nov 10
Full
Nov 18
Last Quarter
Nov 25
New
Dec 2
First Quarter

Hourly Weather History & Observations

Time (CST) Temp. Dew Point Humidity Pressure Visibility Wind Dir Wind Speed Gust Speed Precip Events Conditions
12:00 AM 67 °F 63 °F 83% 29.85 in 12 mi NE 4.6 mph - -   Scattered Clouds
3:00 AM 66 °F 64 °F 89% 29.85 in 7 mi East 4.6 mph - - Rain Rain
6:00 AM 66 °F 64 °F 89% 29.89 in 9 mi East 4.6 mph - - Rain Light Rain
6:00 AM 66.2 °F 64.4 °F 94% 29.98 in 6.2 mi East 4.6 mph - N/A Rain Light Rain
7:00 AM 66.2 °F 62.6 °F 88% 29.98 in 6.2 mi SSE 2.3 mph - N/A   Mostly Cloudy
8:00 AM 68.0 °F 64.4 °F 88% 30.01 in 6.2 mi SE 4.6 mph - N/A   Mostly Cloudy
9:00 AM 71.6 °F 64.4 °F 78% 30.01 in 6.2 mi East 5.8 mph - N/A   Mostly Cloudy
10:00 AM 71.6 °F 64.4 °F 78% 30.00 in 6.2 mi East 10.4 mph - N/A Rain Light Rain
11:00 AM 75.2 °F 64.4 °F 69% 29.97 in 6.2 mi ESE 8.1 mph - N/A   Mostly Cloudy
12:00 PM 77.0 °F 64.4 °F 65% 29.92 in 6.2 mi ESE 12.7 mph - N/A   Scattered Clouds
1:00 PM 77.0 °F 64.4 °F 65% 29.90 in 6.2 mi ESE 8.1 mph - N/A   Mostly Cloudy
2:00 PM 75.2 °F 60.8 °F 61% 29.89 in 6.2 mi East 5.8 mph - N/A   Mostly Cloudy
3:00 PM 75.2 °F 60.8 °F 61% 29.93 in 6.2 mi ESE 12.7 mph - N/A   Mostly Cloudy
4:00 PM 73.4 °F 55.4 °F 53% 29.89 in 6.2 mi East 12.7 mph 25.3 mph N/A   Scattered Clouds
5:00 PM 69.8 °F 55.4 °F 60% 29.92 in 6.2 mi East 9.2 mph - N/A   Partly Cloudy
6:00 PM 68.0 °F 57.2 °F 68% 29.94 in 6.2 mi ESE 10.4 mph - N/A   Partly Cloudy
7:00 PM 68.0 °F 59.0 °F 73% 30.01 in 6.2 mi SE 13.8 mph - N/A   Partly Cloudy
8:00 PM 68.0 °F 57.2 °F 68% 30.03 in 6.2 mi ESE 13.8 mph - N/A   Mostly Cloudy
9:00 PM 69 °F 57 °F 57% 29.92 in 12 mi East 10.4 mph - -   Mostly Cloudy
11:00 PM 68.0 °F 59.0 °F 73% 30.03 in 6.2 mi NE 10.4 mph - N/A   Drizzle